Tracking 23645 objects as of 21-Sep-2021
HD Live streaming from Space Station
objects crossing your sky now

RADUGA 1-7

Track RADUGA 1-7 now!
RADUGA 1-7 is classified as:


NORAD ID: 28194
Int'l Code: 2004-010A
Perigee: 35,761.6 km
Apogee: 35,767.1 km
Inclination: 11.7 °
Period: 1,434.6 minutes
Semi major axis: 42135 km
RCS: 12.5893 m2 (large)
Launch date: March 27, 2004
Source: Commonwealth of Independent States (former USSR) (CIS)
Launch site: TYURATAM MISSILE AND SPACE COMPLEX (TTMTR)

Military communication.
aabbcc
Your satellite tracking list
Your tracking list is empty




NASA's NSSDC Master Catalog

Two Line Element Set (TLE):
1 28194U 04010A   21264.39284010 -.00000023  00000-0  00000-0 0  9997
2 28194  11.6577  33.5916 0000653 156.2482  14.7605  1.00376679 64060
Source of the keplerian elements: AFSPC